SCP
-0 -0 -0 0 0 0 -0 -0 -0 -0 0 -0 -0 -0 0 -0 -0 0 0 0 0 0 0 0 0 -0 -0 0 0 0 -0 0 0 -0 0 0 0 0 0 0 0 0 0 -0 0
-0 -0 -0 -0 -0 0 -0 -0 -0 -0 -0 -0 0 0 0 0 0 0 0 0 0 0 0 0 0 0 0 0 0 0 0 0 -0 0 0 0 0 0 -0 0 0 0 0 0 0
-0 -0 -0 -0 0 -0 -0 -0 -0 -0 -0 0 0 0 0 0 0 0 0 0 0 0 0 0 0 0 0 0 0 0 0 0 -0 0 0 0 0 -0 -0 -0 -0 0 0 0 0
-0 -0 -0 -0 -0 -0 -0 -0 -0 -0 -0 -0 0 0 0 0 0 0 -0 -0 0 0 0 0 0 0 0 0 0 0 0 -0 0 0 0 0 0 0 -0 -0 -0 0 0 0 -0
-0 -0 -0 -0 -0 -0 -0 -0 -0 -0 -0 -0 0 0 0 0 0 -0 0 -0 -0 0 0 0 0 0 0 0 0 0 0 0 0 0 0 0 0 0 0 -0 -0 -0 0 -0 -0
-0 -0 -0 -0 -0 -0 -0 -0 -0 -0 -0 0 0 0 0 0 0 0 -0 0 -0 0 0 0 0 0 -0 0 0 0 0 0 0 0 0 0 0 0 0 0 -0 0 0 0 0
-0 -0 -0 -0 -0 -0 -0 -0 -0 -0 -0 -0 -0 -0 -0 -0 -0 -0 -0 -0 0 0 0 0 0 0 0 0 0 0 0 0 0 -0 0 0 0 0 -0 0 0 0 -0 0 -0
-0 -0 -0 -0 -0 -0 -0 -0 -0 -0 -0 -0 0 -0 -0 0 0 0 -0 0 0 -0 0 0 -0 0 0 0 -0 -0 -0 0 -0 0 0 -0 0 -0 0 0 0 0 -0 0 -0
-0 -0 -0 -0 -0 -0 -0 -0 -0 -0 -0 -0 -0 0 -0 -0 -0 -0 0 0 -0 0 0 0 0 0 -0 0 0 0 -0 -0 0 0 0 0 0 0 0 0 0 0 0 0 0
-0 -0 -0 -0 -0 -0 -0 -0 -0 -0 0 -0 -0 -0 -0 -0 0 0 0 0 0 0 0 0 0 -0 0 -0 0 -0 -0 -0 0 0 0 0 0 -0 0 0 1 0 0 0 0
-0 -0 -0 -0 -0 -0 -0 -0 0 0 -0 -0 0 -0 0 0 0 -0 -0 -0 -0 -0 0 -0 0 0 -0 0 -0 0 0 -0 -0 0 0 0 0 0 0 1 0 0 0 0 0
-0 -0 -0 -0 -0 0 0 0 0 0 0 -0 -0 0 -0 0 -0 0 -0 -0 0 0 0 -0 0 0 0 0 0 -0 -0 0 0 0 0 0 0 0 -0 0 0 0 -0 0 0
-0 -0 -0 -0 -0 0 0 0 0 0 0 0 -0 -0 0 -0 -0 0 -0 -0 -0 0 -0 0 0 0 0 0 0 0 0 0 0 0 0 0 0 -0 0 0 0 0 0 0 0
-0 -0 -0 -0 0 0 0 0 0 0 0 -0 -0 -0 0 0 0 0 0 0 -0 0 0 0 0 0 0 0 0 0 0 0 0 0 0 0 0 -0 0 0 0 0 0 0 0
-0 -0 -0 0 0 0 0 0 -0 0 0 0 0 0 0 -0 -0 0 0 0 0 0 0 0 0 0 0 0 0 0 0 0 0 0 0 0 0 0 0 0 0 0 0 0 0
-0 -0 -0 0 0 0 0 0 0 0 0 0 0 0 0 -0 0 0 0 0 0 0 0 0 0 0 0 0 0 0 0 0 0 0 0 -0 0 0 0 0 0 0 0 0 0
-0 -0 0 0 0 0 0 0 0 0 0 0 0 0 0 0 -0 0 0 0 0 0 0 0 0 0 0 0 0 0 0 0 0 0 0 0 0 0 0 0 0 0 0 0 0
-0 -0 0 0 -0 0 0 0 0 -0 -0 0 0 0 0 0 0 0 0 0 0 0 0 0 0 0 0 0 0 0 0 0 0 0 0 -0 0 0 0 0 0 0 0 0 0
-0 -0 0 0 0 0 0 0 0 0 0 0 0 0 0 -0 0 0 0 0 0 0 0 0 0 0 0 0 0 0 0 0 0 0 0 0 0 0 0 0 0 0 0 -0 -0
-0 0 0 -0 0 0 0 0 0 0 0 0 0 0 0 -0 0 0 0 0 0 0 0 0 0 0 0 0 0 0 0 0 0 0 0 0 0 0 0 0 0 0 0 -0 -0
-0 0 0 0 0 0 0 0 0 0 0 0 0 0 0 -0 0 0 0 0 0 0 0 0 0 0 0 0 0 0 0 0 0 0 0 0 0 0 0 0 0 0 0 0 0
0 0 0 0 0 0 0 0 0 0 0 0 0 0 0 0 0 0 0 0 0 0 0 0 0 0 0 -0 0 0 0 0 0 0 0 0 0 0 0 0 0 -0 0 0 0
0 0 0 0 0 0 0 0 0 0 0 0 0 0 0 0 0 0 0 0 0 0 0 0 0 0 0 0 0 0 0 0 0 0 0 0 0 0 0 0 0 0 0 0 0
0 0 0 0 0 0 0 0 0 0 0 0 0 0 0 0 0 0 0 0 0 0 0 0 0 0 0 0 0 0 0 0 0 0 0 0 0 0 0 0 0 0 0 0 0
0 0 0 0 0 0 0 0 0 0 0 0 0 0 0 0 0 0 0 0 0 0 0 0 0 0 0 0 0 0 0 0 0 0 0 0 0 0 0 0 0 0 0 0 0
0 0 0 0 0 0 0 0 0 0 0 0 0 0 0 0 0 0 0 0 0 0 0 0 0 0 0 0 0 0 0 0 0 0 0 0 0 0 0 0 0 0 0 0 0
0 0 0 0 0 0 0 0 0 0 0 0 0 0 0 0 0 0 0 0 0 0 0 0 0 0 0 0 0 0 0 0 0 0 0 0 0 0 0 0 0 0 0 0 0
Wind_Speed_500mb
29 25 25 24 19 19 21 23 23 20 16 13 12 11 11 11 12 12 4 7 15 18 3 10 8 9 10 21 22 32 9 13 13 23 11 31 20 52 53 58 56 46 44 35 51
30 26 24 22 17 18 23 26 24 18 13 10 9 10 11 11 14 17 11 12 19 12 9 3 15 11 17 31 24 10 5 14 6 12 14 33 36 24 32 48 34 42 28 17 41
32 26 22 19 14 18 24 26 20 13 8 7 7 10 10 7 4 9 12 14 15 13 9 6 14 16 27 36 47 34 13 12 13 36 33 29 35 25 41 10 51 74 74 8 35
32 26 20 17 14 18 24 23 19 12 6 2 5 8 4 3 7 5 4 5 6 15 15 4 5 12 10 12 46 11 24 15 12 28 25 16 21 20 26 30 47 63 68 45 51
33 27 19 15 12 17 22 20 19 13 6 1 6 7 3 5 7 7 1 3 8 10 3 13 32 29 13 17 32 7 6 29 13 13 11 15 19 17 10 45 49 44 29 36 40
37 28 19 15 12 15 18 17 17 12 5 4 7 7 4 9 2 2 12 11 9 7 11 22 23 31 16 24 16 17 17 21 6 13 10 3 8 9 32 46 45 40 39 40 43
41 31 20 14 12 13 14 13 12 8 6 9 9 7 5 5 1 8 13 16 12 10 22 20 16 20 38 18 33 17 11 19 20 20 4 15 12 18 35 50 47 36 56 57 58
45 33 21 13 12 12 12 10 8 7 9 12 10 8 10 8 11 5 2 5 6 5 8 16 6 20 16 26 17 5 7 11 24 20 15 15 16 27 50 35 29 39 52 50 56
49 36 22 13 11 13 9 9 10 10 11 8 4 10 13 5 17 10 10 9 2 3 7 11 4 17 27 8 11 8 15 14 12 23 12 10 9 15 33 45 51 61 54 45 47
52 38 22 13 12 9 8 9 8 7 3 9 15 13 9 5 8 11 6 2 7 3 12 13 12 5 9 5 7 10 8 16 18 10 9 2 12 11 23 37 55 58 51 44 45
52 39 23 13 13 8 10 6 11 5 17 16 26 6 15 11 12 11 8 9 10 14 12 29 5 9 12 7 12 11 13 14 7 11 11 8 8 21 1 53 50 54 55 42 40
45 39 23 10 9 8 10 17 21 17 25 34 35 15 11 13 13 17 11 15 16 15 24 0 2 6 9 6 3 10 12 17 8 21 14 10 13 19 19 35 50 54 50 40 32
42 36 25 11 1 5 9 13 22 24 10 27 34 24 16 21 18 27 19 19 20 16 10 13 11 9 7 11 12 8 14 14 8 14 17 11 17 16 27 56 61 59 46 42 40
45 34 29 19 9 19 16 12 21 21 4 12 24 25 22 28 5 27 11 12 9 7 14 5 14 9 6 6 8 8 17 20 20 16 5 12 11 8 31 32 43 52 48 39 34
46 41 21 23 18 14 25 19 29 4 5 20 17 29 22 20 26 16 3 8 13 18 8 14 4 7 2 14 15 5 16 14 11 15 10 22 3 11 36 27 28 44 47 35 29
45 45 28 19 14 21 28 22 12 3 11 17 18 15 11 24 13 20 10 8 19 11 15 14 4 6 4 11 7 10 8 15 13 6 5 40 16 10 13 32 24 41 43 33 23
44 44 32 20 9 20 28 17 2 6 10 14 26 18 17 16 16 14 13 13 9 7 10 11 18 7 22 2 11 7 10 7 10 6 15 20 5 8 23 31 40 37 42 32 21
46 43 23 9 3 18 12 5 8 17 22 14 3 11 7 18 16 16 4 12 8 7 4 6 9 7 5 8 5 8 4 8 6 7 12 19 8 5 30 50 52 51 40 28 22
50 42 29 7 5 8 10 5 9 7 14 18 11 3 11 12 8 5 10 13 10 13 10 8 5 3 10 13 10 7 5 6 1 7 5 7 8 10 25 26 41 45 44 35 34
54 53 28 12 16 7 2 10 11 31 11 17 9 9 8 16 15 12 8 8 11 15 17 9 8 6 4 7 12 13 4 8 6 4 6 7 1 10 15 15 27 31 44 41 36
46 24 9 16 11 8 7 12 13 20 13 11 12 13 19 11 13 4 7 19 14 14 16 6 5 12 15 4 6 8 2 4 3 4 5 3 10 11 16 13 14 11 53 50 40
24 8 14 9 12 12 13 13 10 4 15 4 2 10 8 15 14 11 9 11 19 20 8 4 5 5 11 26 9 11 5 6 9 10 4 5 10 12 18 24 20 25 19 46 42
32 21 27 15 5 8 18 26 8 6 4 4 2 6 14 9 8 9 6 19 13 10 6 5 6 4 14 8 10 6 7 9 5 5 6 4 11 9 13 14 16 25 10 18 38
14 8 17 34 25 11 9 11 4 12 5 7 11 17 13 5 7 3 6 10 13 16 23 13 4 6 8 13 7 11 18 12 13 7 11 13 16 12 7 5 19 31 7 3 19
8 13 19 7 11 13 7 12 17 5 13 15 2 11 9 7 11 12 15 14 14 31 11 11 5 6 12 17 21 22 22 24 15 14 11 12 13 15 9 15 14 13 18 22 27
11 12 14 28 23 7 2 9 14 7 6 2 6 13 10 6 4 11 11 11 7 5 13 11 7 8 9 17 23 30 30 31 10 12 13 15 13 13 22 32 32 30 30 34 32
10 14 10 18 14 4 11 13 5 13 13 8 11 12 13 19 26 25 17 11 8 3 1 12 6 2 8 12 21 18 14 13 5 7 9 9 13 14 19 37 46 50 42 30 23
Wind_Direction_500mb
344 345 347 348 347 347 345 340 332 320 304 282 266 251 254 260 262 257 244 274 314 314 355 84 37 3 311 279 278 275 27 299 293 28 332 31 56 66 83 77 82 87 113 137 154
349 346 350 349 346 349 344 338 331 323 305 280 255 237 244 259 266 253 248 266 300 277 166 333 292 248 234 257 265 169 146 253 295 49 17 7 33 31 89 91 78 85 100 94 157
355 347 351 349 346 350 349 343 343 334 310 275 234 223 242 283 320 255 248 265 290 221 192 5 345 303 245 264 264 253 217 254 49 45 27 349 20 0 109 53 131 128 110 347 184
356 350 348 348 353 355 356 352 353 349 333 274 211 214 235 195 49 284 267 271 272 198 199 33 301 277 274 254 272 264 275 315 347 51 13 346 16 335 84 152 137 144 161 173 197
354 351 348 348 353 359 360 356 357 359 1 138 178 184 185 259 262 19 103 110 93 135 136 298 284 267 259 275 302 181 326 307 28 9 330 331 348 316 77 140 145 155 164 170 186
358 354 350 349 346 356 359 354 1 10 37 126 147 164 182 302 326 36 97 87 54 32 320 296 287 326 302 317 322 3 357 343 10 288 299 182 291 286 279 164 157 165 168 120 98
3 357 353 354 357 356 360 357 3 29 77 117 125 149 274 0 342 360 34 5 355 286 300 320 299 334 323 322 354 5 6 319 282 249 159 81 323 268 262 155 159 177 101 86 86
6 0 357 5 11 7 9 13 30 71 107 124 105 339 281 204 196 243 224 223 295 292 317 347 338 305 288 305 326 274 272 255 266 203 161 118 274 261 238 123 103 73 73 52 47
9 5 3 10 19 13 38 55 68 94 127 141 50 336 282 294 191 187 215 237 25 269 284 291 290 266 288 270 331 283 242 233 311 135 146 148 275 5 122 116 91 78 66 49 34
9 9 6 14 20 30 90 90 100 128 233 266 266 300 247 161 123 158 243 134 209 257 257 236 231 241 314 53 250 333 292 309 148 178 112 33 305 322 149 114 96 86 74 56 37
10 11 11 21 19 75 87 5 325 257 257 238 287 301 130 113 141 184 183 200 252 243 247 220 139 224 230 60 5 326 343 338 83 141 117 130 275 289 175 105 94 84 74 60 40
6 9 11 22 39 76 2 360 343 310 306 274 267 284 137 180 179 156 192 228 206 231 247 293 247 43 23 95 343 345 324 305 7 20 56 16 290 284 78 99 94 90 77 64 53
359 359 1 1 354 65 344 359 343 317 284 296 216 224 206 225 203 163 213 240 252 273 253 203 154 126 64 336 318 4 36 8 17 4 347 352 292 258 100 103 95 86 82 67 59
355 347 349 331 330 338 337 337 326 344 320 240 207 210 178 223 224 157 223 296 292 297 343 91 114 54 9 300 16 74 12 9 358 12 287 59 287 332 133 113 98 94 82 78 68
348 345 337 337 329 2 355 341 322 302 312 139 175 156 176 221 135 176 153 298 275 323 88 248 54 157 266 64 41 319 31 341 310 296 328 276 285 282 135 112 101 100 100 89 72
339 340 327 305 294 341 338 319 307 9 249 185 140 180 212 225 163 143 179 237 300 310 315 264 209 138 91 39 346 282 308 297 275 193 292 261 179 308 172 131 110 105 105 103 92
331 332 314 280 277 357 321 308 4 228 150 150 162 182 200 199 224 161 192 191 209 183 272 310 235 125 91 349 17 45 24 342 348 7 234 330 307 152 89 115 118 116 115 113 112
325 330 313 295 266 348 302 346 249 268 304 116 122 148 213 216 196 163 113 311 38 302 89 336 343 3 135 84 60 324 174 151 263 324 309 329 101 154 104 110 117 129 132 134 143
322 324 295 233 341 329 307 254 239 337 3 357 151 279 208 253 62 46 156 249 53 46 98 23 100 63 89 69 85 338 343 194 248 277 326 231 68 79 125 130 131 137 148 158 173
325 326 310 215 199 281 211 258 289 302 7 354 332 184 235 239 162 158 238 94 100 84 69 21 338 340 164 163 238 171 216 16 350 222 280 314 355 180 151 132 154 153 158 170 179
326 321 262 164 252 200 220 241 296 63 25 14 358 332 339 9 17 130 71 48 48 111 95 70 107 298 358 230 299 39 351 21 131 122 181 298 292 122 125 131 133 160 176 185 198
335 292 165 181 226 226 236 249 302 106 114 325 33 316 345 354 9 23 33 77 53 55 46 55 108 313 276 288 357 74 38 108 122 287 325 166 268 145 157 167 183 220 234 205 210
326 278 271 222 231 263 291 236 172 38 3 33 245 306 35 19 31 356 11 116 104 81 92 339 4 323 306 19 46 74 320 327 203 133 225 163 261 248 124 79 6 320 88 180 200
316 301 308 225 244 258 323 320 235 116 3 350 344 352 15 10 321 315 326 145 157 122 125 99 130 170 217 268 305 317 309 248 222 194 230 225 256 291 258 41 271 266 163 150 204
248 263 340 311 355 357 2 334 317 143 190 130 282 265 236 224 291 285 233 136 171 142 107 114 182 254 277 303 306 300 287 287 277 258 251 252 270 273 259 223 224 104 82 56 47
263 333 321 303 297 316 313 275 279 275 78 60 321 261 336 234 3 23 32 45 51 246 143 166 207 223 276 306 303 291 295 284 258 286 316 327 329 281 338 79 64 57 55 74 68
270 330 283 286 311 256 244 234 71 57 8 304 334 358 359 36 12 353 358 357 4 44 217 150 164 53 260 308 315 307 258 322 72 44 21 340 272 338 46 57 52 62 58 53 46
Wind_Speed_850mb
29 25 25 24 19 19 21 23 23 20 16 13 12 11 11 11 12 12 4 7 15 18 3 10 8 9 10 21 22 32 9 13 13 23 11 31 20 52 53 58 56 46 44 35 51
30 26 24 22 17 18 23 26 24 18 13 10 9 10 11 11 14 17 11 12 19 12 9 3 15 11 17 31 24 10 5 14 6 12 14 33 36 24 32 48 34 42 28 17 41
32 26 22 19 14 18 24 26 20 13 8 7 7 10 10 7 4 9 12 14 15 13 9 6 14 16 27 36 47 34 13 12 13 36 33 29 35 25 41 10 51 74 74 8 35
32 26 20 17 14 18 24 23 19 12 6 2 5 8 4 3 7 5 4 5 6 15 15 4 5 12 10 12 46 11 24 15 12 28 25 16 21 20 26 30 47 63 68 45 51
33 27 19 15 12 17 22 20 19 13 6 1 6 7 3 5 7 7 1 3 8 10 3 13 32 29 13 17 32 7 6 29 13 13 11 15 19 17 10 45 49 44 29 36 40
37 28 19 15 12 15 18 17 17 12 5 4 7 7 4 9 2 2 12 11 9 7 11 22 23 31 16 24 16 17 17 21 6 13 10 3 8 9 32 46 45 40 39 40 43
41 31 20 14 12 13 14 13 12 8 6 9 9 7 5 5 1 8 13 16 12 10 22 20 16 20 38 18 33 17 11 19 20 20 4 15 12 18 35 50 47 36 56 57 58
45 33 21 13 12 12 12 10 8 7 9 12 10 8 10 8 11 5 2 5 6 5 8 16 6 20 16 26 17 5 7 11 24 20 15 15 16 27 50 35 29 39 52 50 56
49 36 22 13 11 13 9 9 10 10 11 8 4 10 13 5 17 10 10 9 2 3 7 11 4 17 27 8 11 8 15 14 12 23 12 10 9 15 33 45 51 61 54 45 47
52 38 22 13 12 9 8 9 8 7 3 9 15 13 9 5 8 11 6 2 7 3 12 13 12 5 9 5 7 10 8 16 18 10 9 2 12 11 23 37 55 58 51 44 45
52 39 23 13 13 8 10 6 11 5 17 16 26 6 15 11 12 11 8 9 10 14 12 29 5 9 12 7 12 11 13 14 7 11 11 8 8 21 1 53 50 54 55 42 40
45 39 23 10 9 8 10 17 21 17 25 34 35 15 11 13 13 17 11 15 16 15 24 0 2 6 9 6 3 10 12 17 8 21 14 10 13 19 19 35 50 54 50 40 32
42 36 25 11 1 5 9 13 22 24 10 27 34 24 16 21 18 27 19 19 20 16 10 13 11 9 7 11 12 8 14 14 8 14 17 11 17 16 27 56 61 59 46 42 40
45 34 29 19 9 19 16 12 21 21 4 12 24 25 22 28 5 27 11 12 9 7 14 5 14 9 6 6 8 8 17 20 20 16 5 12 11 8 31 32 43 52 48 39 34
46 41 21 23 18 14 25 19 29 4 5 20 17 29 22 20 26 16 3 8 13 18 8 14 4 7 2 14 15 5 16 14 11 15 10 22 3 11 36 27 28 44 47 35 29
45 45 28 19 14 21 28 22 12 3 11 17 18 15 11 24 13 20 10 8 19 11 15 14 4 6 4 11 7 10 8 15 13 6 5 40 16 10 13 32 24 41 43 33 23
44 44 32 20 9 20 28 17 2 6 10 14 26 18 17 16 16 14 13 13 9 7 10 11 18 7 22 2 11 7 10 7 10 6 15 20 5 8 23 31 40 37 42 32 21
46 43 23 9 3 18 12 5 8 17 22 14 3 11 7 18 16 16 4 12 8 7 4 6 9 7 5 8 5 8 4 8 6 7 12 19 8 5 30 50 52 51 40 28 22
50 42 29 7 5 8 10 5 9 7 14 18 11 3 11 12 8 5 10 13 10 13 10 8 5 3 10 13 10 7 5 6 1 7 5 7 8 10 25 26 41 45 44 35 34
54 53 28 12 16 7 2 10 11 31 11 17 9 9 8 16 15 12 8 8 11 15 17 9 8 6 4 7 12 13 4 8 6 4 6 7 1 10 15 15 27 31 44 41 36
46 24 9 16 11 8 7 12 13 20 13 11 12 13 19 11 13 4 7 19 14 14 16 6 5 12 15 4 6 8 2 4 3 4 5 3 10 11 16 13 14 11 53 50 40
24 8 14 9 12 12 13 13 10 4 15 4 2 10 8 15 14 11 9 11 19 20 8 4 5 5 11 26 9 11 5 6 9 10 4 5 10 12 18 24 20 25 19 46 42
32 21 27 15 5 8 18 26 8 6 4 4 2 6 14 9 8 9 6 19 13 10 6 5 6 4 14 8 10 6 7 9 5 5 6 4 11 9 13 14 16 25 10 18 38
14 8 17 34 25 11 9 11 4 12 5 7 11 17 13 5 7 3 6 10 13 16 23 13 4 6 8 13 7 11 18 12 13 7 11 13 16 12 7 5 19 31 7 3 19
8 13 19 7 11 13 7 12 17 5 13 15 2 11 9 7 11 12 15 14 14 31 11 11 5 6 12 17 21 22 22 24 15 14 11 12 13 15 9 15 14 13 18 22 27
11 12 14 28 23 7 2 9 14 7 6 2 6 13 10 6 4 11 11 11 7 5 13 11 7 8 9 17 23 30 30 31 10 12 13 15 13 13 22 32 32 30 30 34 32
10 14 10 18 14 4 11 13 5 13 13 8 11 12 13 19 26 25 17 11 8 3 1 12 6 2 8 12 21 18 14 13 5 7 9 9 13 14 19 37 46 50 42 30 23
Wind_Direction_850mb
344 345 347 348 347 347 345 340 332 320 304 282 266 251 254 260 262 257 244 274 314 314 355 84 37 3 311 279 278 275 27 299 293 28 332 31 56 66 83 77 82 87 113 137 154
349 346 350 349 346 349 344 338 331 323 305 280 255 237 244 259 266 253 248 266 300 277 166 333 292 248 234 257 265 169 146 253 295 49 17 7 33 31 89 91 78 85 100 94 157
355 347 351 349 346 350 349 343 343 334 310 275 234 223 242 283 320 255 248 265 290 221 192 5 345 303 245 264 264 253 217 254 49 45 27 349 20 0 109 53 131 128 110 347 184
356 350 348 348 353 355 356 352 353 349 333 274 211 214 235 195 49 284 267 271 272 198 199 33 301 277 274 254 272 264 275 315 347 51 13 346 16 335 84 152 137 144 161 173 197
354 351 348 348 353 359 360 356 357 359 1 138 178 184 185 259 262 19 103 110 93 135 136 298 284 267 259 275 302 181 326 307 28 9 330 331 348 316 77 140 145 155 164 170 186
358 354 350 349 346 356 359 354 1 10 37 126 147 164 182 302 326 36 97 87 54 32 320 296 287 326 302 317 322 3 357 343 10 288 299 182 291 286 279 164 157 165 168 120 98
3 357 353 354 357 356 360 357 3 29 77 117 125 149 274 0 342 360 34 5 355 286 300 320 299 334 323 322 354 5 6 319 282 249 159 81 323 268 262 155 159 177 101 86 86
6 0 357 5 11 7 9 13 30 71 107 124 105 339 281 204 196 243 224 223 295 292 317 347 338 305 288 305 326 274 272 255 266 203 161 118 274 261 238 123 103 73 73 52 47
9 5 3 10 19 13 38 55 68 94 127 141 50 336 282 294 191 187 215 237 25 269 284 291 290 266 288 270 331 283 242 233 311 135 146 148 275 5 122 116 91 78 66 49 34
9 9 6 14 20 30 90 90 100 128 233 266 266 300 247 161 123 158 243 134 209 257 257 236 231 241 314 53 250 333 292 309 148 178 112 33 305 322 149 114 96 86 74 56 37
10 11 11 21 19 75 87 5 325 257 257 238 287 301 130 113 141 184 183 200 252 243 247 220 139 224 230 60 5 326 343 338 83 141 117 130 275 289 175 105 94 84 74 60 40
6 9 11 22 39 76 2 360 343 310 306 274 267 284 137 180 179 156 192 228 206 231 247 293 247 43 23 95 343 345 324 305 7 20 56 16 290 284 78 99 94 90 77 64 53
359 359 1 1 354 65 344 359 343 317 284 296 216 224 206 225 203 163 213 240 252 273 253 203 154 126 64 336 318 4 36 8 17 4 347 352 292 258 100 103 95 86 82 67 59
355 347 349 331 330 338 337 337 326 344 320 240 207 210 178 223 224 157 223 296 292 297 343 91 114 54 9 300 16 74 12 9 358 12 287 59 287 332 133 113 98 94 82 78 68
348 345 337 337 329 2 355 341 322 302 312 139 175 156 176 221 135 176 153 298 275 323 88 248 54 157 266 64 41 319 31 341 310 296 328 276 285 282 135 112 101 100 100 89 72
339 340 327 305 294 341 338 319 307 9 249 185 140 180 212 225 163 143 179 237 300 310 315 264 209 138 91 39 346 282 308 297 275 193 292 261 179 308 172 131 110 105 105 103 92
331 332 314 280 277 357 321 308 4 228 150 150 162 182 200 199 224 161 192 191 209 183 272 310 235 125 91 349 17 45 24 342 348 7 234 330 307 152 89 115 118 116 115 113 112
325 330 313 295 266 348 302 346 249 268 304 116 122 148 213 216 196 163 113 311 38 302 89 336 343 3 135 84 60 324 174 151 263 324 309 329 101 154 104 110 117 129 132 134 143
322 324 295 233 341 329 307 254 239 337 3 357 151 279 208 253 62 46 156 249 53 46 98 23 100 63 89 69 85 338 343 194 248 277 326 231 68 79 125 130 131 137 148 158 173
325 326 310 215 199 281 211 258 289 302 7 354 332 184 235 239 162 158 238 94 100 84 69 21 338 340 164 163 238 171 216 16 350 222 280 314 355 180 151 132 154 153 158 170 179
326 321 262 164 252 200 220 241 296 63 25 14 358 332 339 9 17 130 71 48 48 111 95 70 107 298 358 230 299 39 351 21 131 122 181 298 292 122 125 131 133 160 176 185 198
335 292 165 181 226 226 236 249 302 106 114 325 33 316 345 354 9 23 33 77 53 55 46 55 108 313 276 288 357 74 38 108 122 287 325 166 268 145 157 167 183 220 234 205 210
326 278 271 222 231 263 291 236 172 38 3 33 245 306 35 19 31 356 11 116 104 81 92 339 4 323 306 19 46 74 320 327 203 133 225 163 261 248 124 79 6 320 88 180 200
316 301 308 225 244 258 323 320 235 116 3 350 344 352 15 10 321 315 326 145 157 122 125 99 130 170 217 268 305 317 309 248 222 194 230 225 256 291 258 41 271 266 163 150 204
248 263 340 311 355 357 2 334 317 143 190 130 282 265 236 224 291 285 233 136 171 142 107 114 182 254 277 303 306 300 287 287 277 258 251 252 270 273 259 223 224 104 82 56 47
263 333 321 303 297 316 313 275 279 275 78 60 321 261 336 234 3 23 32 45 51 246 143 166 207 223 276 306 303 291 295 284 258 286 316 327 329 281 338 79 64 57 55 74 68
270 330 283 286 311 256 244 234 71 57 8 304 334 358 359 36 12 353 358 357 4 44 217 150 164 53 260 308 315 307 258 322 72 44 21 340 272 338 46 57 52 62 58 53 46